Flag for U.S.A. Weather past 2 weeks in Seattle, Washington, U.S.A.

Now
64 °F

Light rain. Partly sunny.


Feels Like: 64 °F
Forecast: 58 / 68 °F
Wind: 7 mph from North

Location: Seattle Boeing Field

Current Time: Aug 30, 2015 at 1:10:46 PM

Latest Report: Aug 30, 2015 at 11:53 AM


Visibility: 9 mi

Pressure: 29.93 "Hg

Humidity: 73%

Dew point: 55 °F

Location of SeattleLocation

Historic Weather in Seattle — Graph

°F

Seattle temperature yesterday

Maximum temperature yesterday: 74 °F (at 2:53 PM)
Minimum temperature yesterday: 60 °F (at 11:53 PM)
Average temperature yesterday: 67 °F

Past Weeks' High & Low Weather Summary

 TemperatureHumidityPressure
High91 °F (Aug 19, 4:53 PM)100% (Aug 30, 3:53 AM)30.27 "Hg (Aug 30, 3:53 AM)
Low57 °F (Aug 22, 3:53 AM)22% (Aug 27, 4:53 PM)29.50 "Hg (Aug 29, 4:53 AM)
Average69 °F54%29.98 "Hg
* Reported Aug 15 11:53 AM — Aug 30 11:53 AM, Seattle, Weather by CustomWeather, © 2015

Note: Actual official high and low records may vary slightly from our data, if they occured in-between our weather recording intervals... More about our weather records

Advertising

Seattle weather history for previous 24 hours

 ConditionsComfort  
Time TempWeatherWind HumidityBarometerVisibility
11:53 AM
Sun, Aug 30
64 °FLight rain. Partly sunny.7 mph73%29.93 "Hg9 mi
10:53 AM65 °FBroken clouds.13 mph73%29.91 "Hg10 mi
9:53 AM62 °FBroken clouds.13 mph93%29.88 "Hg10 mi
8:53 AM60 °FLight rain. Broken clouds.10 mph90%29.87 "Hg9 mi
7:53 AM59 °FBroken clouds.13 mph90%29.85 "Hg10 mi
6:53 AM59 °FRain. Fog.12 mph96%29.82 "Hg5 mi
5:53 AM60 °FRain. Fog.12 mph93%29.80 "Hg5 mi
4:53 AM59 °FLight rain. Overcast.3 mph100%29.80 "Hg7 mi
3:53 AM60 °FLight rain. Partly cloudy.8 mph100%29.79 "Hg7 mi
2:53 AM59 °FPartly cloudy.5 mph88%29.78 "Hg10 mi
1:53 AM59 °FPassing clouds.7 mphN/A29.77 "Hg10 mi
12:53 AM59 °FPassing clouds.7 mph88%29.75 "Hg10 mi
11:53 PM
Sat, Aug 29
60 °FRain. Fog.10 mph96%29.77 "Hg3 mi
10:53 PM61 °FRain. Mostly cloudy.9 mphN/A29.77 "Hg3 mi
9:53 PM61 °FLight rain. Mostly cloudy.8 mphN/A29.78 "Hg7 mi
8:53 PM62 °FRain. Cloudy.9 mph80%29.77 "Hg4 mi
7:53 PM70 °FOvercast.5 mph55%29.73 "Hg10 mi
6:53 PM68 °FBroken clouds.6 mph65%29.74 "Hg10 mi
5:53 PM71 °FPartly sunny.18 mph55%29.74 "Hg10 mi
4:53 PM72 °FPartly sunny.12 mph52%29.74 "Hg10 mi
3:53 PM72 °FBroken clouds.17 mph53%29.74 "Hg10 mi
2:53 PM74 °FBroken clouds.18 mph50%29.73 "Hg10 mi
1:53 PM72 °FBroken clouds.21 mph55%29.71 "Hg10 mi
Weather by CustomWeather, © 2015

See weather overviewHow to use our weather pages